W4SNA-3 Weather Reports


Display with metric or nautical units.
time (UTC)temp
F
wind
direction
speed
MPH
gust
MPH
rain 1hr
in
rain 24hr
in
rain mn
in
humidity
%
barometer
mb
20260507195515 57 42 1.0 5.0 0.00 0.06 0.04 86 1008.1
20260507195003 57 98 2.0 8.0 0.00 0.06 0.04 84 1008.1
20260507194457 57 111 1.0 8.0 0.00 0.06 0.04 85 1008.1
20260507193956 57 351 1.0 6.0 0.00 0.06 0.04 88 1008.0
20260507193456 57 320 3.0 10.0 0.00 0.06 0.04 88 1008.0
20260507193002 56 327 4.0 10.0 0.00 0.06 0.04 88 1007.9
20260507192458 56 306 3.0 9.0 0.00 0.06 0.04 91 1007.1
20260507191956 56 301 3.0 7.0 0.00 0.06 0.04 93 1007.0
20260507191432 55 284 3.0 7.0 0.00 0.06 0.04 94 1007.0
20260507190937 54 305 2.0 7.0 0.00 0.06 0.04 96 1007.1
20260507190431 54 313 2.0 5.0 0.00 0.06 0.04 96 1007.4
20260507185933 53 51 1.0 7.0 0.00 0.06 0.04 96 1007.8
20260507185432 53 92 2.0 9.0 0.00 0.06 0.04 97 1007.8
20260507184948 53 22 2.0 9.0 0.00 0.06 0.04 97 1007.7
20260507184432 52 311 3.0 9.0 0.00 0.06 0.04 97 1007.6
20260507183934 51 351 4.0 9.0 0.00 0.06 0.04 97 1007.4
20260507183432 51 351 3.0 9.0 0.00 0.06 0.04 97 1007.6
20260507182942 50 353 4.0 9.0 0.01 0.06 0.04 97 1007.7
20260507182440 50 12 2.0 8.0 0.01 0.06 0.04 97 1007.8
20260507181931 50 347 3.0 8.0 0.01 0.06 0.04 96 1007.9
20260507181431 50 333 3.0 6.0 0.01 0.06 0.04 96 1007.8
20260507180651 49 343 2.0 5.0 0.02 0.06 0.04 96 1008.1
20260507180151 49 292 2.0 5.0 0.02 0.06 0.04 96 1008.1
20260507175651 49 316 3.0 5.0 0.02 0.06 0.04 96 1007.9
20260507175039 49 306 3.0 6.0 0.02 0.06 0.04 96 1008.0
20260507174538 49 327 3.0 6.0 0.02 0.06 0.04 95 1007.9
20260507174038 49 322 3.0 7.0 0.02 0.06 0.04 95 1007.9
20260507173539 49 346 4.0 7.0 0.02 0.06 0.04 95 1007.9
20260507173038 50 319 4.0 6.0 0.01 0.05 0.03 94 1008.0
20260507172542 50 321 3.0 6.0 0.01 0.05 0.03 94 1007.8
20260507172039 50 327 3.0 7.0 0.01 0.05 0.03 93 1007.9
20260507171538 51 330 2.0 7.0 0.01 0.05 0.03 93 1007.9
20260507171041 51 335 3.0 7.0 0.01 0.05 0.03 93 1008.1
20260507170539 52 6 3.0 7.0 0.00 0.04 0.02 92 1008.0
20260507170041 52 320 3.0 9.0 0.00 0.04 0.02 92 1008.1
20260507165538 53 328 3.0 9.0 0.00 0.04 0.02 92 1008.2
20260507164559 53 338 2.0 7.0 0.00 0.04 0.02 94 1008.9
20260507164056 53 320 2.0 8.0 0.00 0.04 0.02 94 1008.9
20260507163556 53 344 3.0 8.0 0.00 0.04 0.02 95 1008.8
20260507163056 52 325 2.0 6.0 0.00 0.04 0.02 95 1008.9
20260507162556 52 346 3.0 7.0 0.00 0.04 0.02 94 1008.9
20260507162056 52 337 2.0 7.0 0.00 0.04 0.02 94 1009.1
20260507161556 52 320 2.0 6.0 0.00 0.04 0.02 93 1009.3
20260507161058 53 321 2.0 6.0 0.00 0.04 0.02 93 1009.3
20260507160556 53 346 2.0 6.0 0.00 0.04 0.02 93 1009.3
20260507160056 53 340 2.0 8.0 0.00 0.04 0.02 93 1009.3
20260507155557 54 321 3.0 8.0 0.00 0.04 0.02 93 1009.3
20260507155105 54 359 2.0 7.0 0.00 0.04 0.02 94 1009.3
20260507154601 54 14 3.0 7.0 0.00 0.04 0.02 93 1009.2
20260507154057 54 359 2.0 4.0 0.00 0.04 0.02 94 1009.1
20260507153558 54 337 2.0 5.0 0.00 0.04 0.02 94 1009.2
20260507153056 55 314 2.0 5.0 0.00 0.04 0.02 94 1009.3
20260507152602 55 336 2.0 5.0 0.00 0.04 0.02 94 1009.2
20260507152056 55 312 2.0 5.0 0.00 0.04 0.02 94 1009.2
20260507151559 55 353 2.0 4.0 0.00 0.04 0.02 95 1009.2
20260507150645 55 339 2.0 5.0 0.00 0.04 0.02 96 1009.3
20260507150154 54 333 2.0 5.0 0.00 0.04 0.02 95 1009.2
20260507145647 54 321 2.0 5.0 0.00 0.04 0.02 94 1009.3
20260507145143 54 318 2.0 5.0 0.00 0.04 0.02 94 1009.3
20260507144649 55 315 2.0 5.0 0.00 0.04 0.02 94 1009.4
20260507144143 55 346 2.0 5.0 0.00 0.04 0.02 95 1009.4
20260507143644 55 327 2.0 4.0 0.00 0.04 0.02 95 1009.3
20260507143151 55 349 2.0 6.0 0.00 0.04 0.02 95 1009.3
20260507142648 55 357 2.0 6.0 0.00 0.04 0.02 95 1009.3
20260507142143 56 9 2.0 5.0 0.00 0.04 0.02 96 1009.2
20260507141443 55 356 2.0 5.0 0.00 0.04 0.02 96 1009.2
20260507140943 55 344 2.0 5.0 0.00 0.04 0.02 97 1009.3
20260507140444 55 317 2.0 5.0 0.00 0.04 0.02 97 1009.5
20260507135943 55 335 2.0 5.0 0.00 0.04 0.02 97 1009.3
20260507135256 55 344 3.0 5.0 0.00 0.04 0.02 97 1009.3
20260507134757 55 355 2.0 5.0 0.00 0.04 0.02 97 1009.3
20260507134256 56 39 2.0 5.0 0.00 0.04 0.02 97 1009.3
20260507133756 56 32 2.0 5.0 0.00 0.04 0.02 98 1009.3
20260507133302 56 33 1.0 5.0 0.00 0.04 0.02 98 1009.3
20260507132306 55 40 2.0 5.0 0.00 0.04 0.02 98 1009.0
20260507131802 55 38 2.0 5.0 0.00 0.04 0.02 98 1009.3
20260507131302 54 21 1.0 4.0 0.00 0.04 0.02 98 1009.7
20260507130804 54 13 1.0 5.0 0.00 0.04 0.02 98 1009.9
20260507130312 53 42 2.0 5.0 0.00 0.05 0.02 98 1009.9
20260507125802 53 43 1.0 3.0 0.00 0.05 0.02 98 1009.7
20260507125306 53 19 1.0 7.0 0.00 0.05 0.02 98 1010.1
20260507124804 53 15 2.0 7.0 0.00 0.05 0.02 98 1010.2
20260507124302 53 47 2.0 4.0 0.00 0.05 0.02 98 1010.3
20260507123803 54 299 2.0 5.0 0.00 0.05 0.02 98 1010.4
20260507123303 54 43 1.0 5.0 0.00 0.05 0.02 98 1010.3
20260507122815 54 44 2.0 4.0 0.00 0.05 0.02 98 1010.2
20260507122306 54 47 2.0 4.0 0.00 0.05 0.02 98 1010.1
20260507121805 54 56 1.0 3.0 0.00 0.05 0.02 98 1010.3
20260507121302 54 56 1.0 3.0 0.00 0.05 0.02 98 1010.3
20260507120802 54 57 1.0 3.0 0.00 0.05 0.02 98 1010.3
20260507120302 54 57 1.0 3.0 0.00 0.05 0.02 98 1010.4
20260507115741 54 72 1.0 3.0 0.00 0.05 0.02 98 1010.3
20260507115006 54 0 0.0 3.0 0.00 0.05 0.02 98 1010.2
20260507114517 55 0 0.0 3.0 0.00 0.05 0.02 98 1009.8
20260507114011 55 0 0.0 3.0 0.00 0.05 0.02 98 1009.6
20260507113506 55 0 0.0 3.0 0.00 0.05 0.02 98 1009.5
20260507113001 55 120 1.0 4.0 0.00 0.05 0.02 98 1009.5
20260507112517 55 0 0.0 4.0 0.00 0.05 0.02 98 1009.5
20260507112004 55 0 0.0 3.0 0.00 0.05 0.02 98 1009.3
20260507111501 55 0 0.0 3.0 0.00 0.05 0.02 98 1009.6
20260507111002 55 20 1.0 4.0 0.00 0.05 0.02 98 1009.6
20260507110501 56 22 1.0 6.0 0.00 0.05 0.02 98 1009.3
20260507110001 56 29 3.0 6.0 0.00 0.05 0.02 98 1009.1
20260507105517 56 10 1.0 4.0 0.00 0.05 0.02 98 1009.2
20260507105001 56 336 1.0 3.0 0.00 0.05 0.02 98 1009.4
20260507104501 56 336 2.0 3.0 0.00 0.05 0.02 98 1009.4
20260507104017 56 17 2.0 3.0 0.00 0.05 0.02 98 1009.3
20260507103501 56 27 1.0 3.0 0.00 0.05 0.02 98 1009.5
20260507103001 56 28 1.0 3.0 0.00 0.05 0.02 98 1009.5
20260507102442 56 0 0.0 4.0 0.00 0.05 0.02 98 1009.2
20260507101942 56 0 0.0 4.0 0.00 0.05 0.02 98 1009.5
20260507101443 56 0 0.0 2.0 0.00 0.05 0.02 98 1009.7
20260507100948 56 251 1.0 2.0 0.00 0.05 0.02 98 1009.6
20260507100442 56 0 0.0 2.0 0.00 0.05 0.02 98 1009.6
20260507095942 56 0 0.0 2.0 0.00 0.05 0.02 98 1009.4
20260507095442 56 0 0.0 1.0 0.00 0.05 0.02 98 1009.2
20260507094942 56 0 0.0 1.0 0.00 0.05 0.02 98 1009.3
20260507094442 56 0 0.0 1.0 0.00 0.05 0.02 98 1009.4
20260507093942 56 0 0.0 0.0 0.00 0.05 0.02 98 1009.3
20260507093442 56 0 0.0 0.0 0.00 0.05 0.02 98 1009.3
20260507092946 56 0 0.0 0.0 0.00 0.05 0.02 98 1008.9
20260507092442 56 0 0.0 0.0 0.01 0.05 0.02 98 1008.5
20260507091942 56 0 0.0 2.0 0.01 0.05 0.02 98 1008.8
20260507091442 56 0 0.0 2.0 0.01 0.05 0.02 98 1009.0
20260507090942 56 0 0.0 2.0 0.01 0.05 0.02 98 1009.0
20260507090500 56 0 0.0 2.0 0.01 0.05 0.02 98 1009.2
20260507085942 56 0 0.0 1.0 0.01 0.05 0.02 98 1009.3
20260507085442 56 0 0.0 1.0 0.01 0.05 0.02 98 1009.3
20260507084943 56 0 0.0 3.0 0.01 0.05 0.02 98 1009.5
20260507084508 57 0 0.0 3.0 0.01 0.05 0.02 98 1009.5
20260507083942 57 0 0.0 3.0 0.01 0.05 0.02 98 1009.6
20260507083444 57 0 0.0 3.0 0.01 0.05 0.02 98 1009.6
20260507082942 57 0 0.0 0.0 0.01 0.05 0.02 98 1009.7
20260507082442 57 0 0.0 0.0 0.00 0.04 0.01 98 1009.8
20260507081950 57 0 0.0 0.0 0.00 0.04 0.01 98 1010.0
20260507081442 57 0 0.0 0.0 0.00 0.04 0.01 98 1009.8
20260507080943 57 0 0.0 0.0 0.00 0.04 0.01 98 1009.8
20260507080444 57 0 0.0 0.0 0.00 0.04 0.01 98 1009.7
20260507080046 57 0 0.0 0.0 0.00 0.04 0.01 98 1009.5
20260507075442 57 0 0.0 0.0 0.00 0.04 0.01 98 1009.8
20260507075003 57 0 0.0 2.0 0.00 0.04 0.01 98 1010.0
20260507074511 57 0 0.0 3.0 0.00 0.04 0.01 98 1010.1
20260507073944 57 0 0.0 3.0 0.00 0.04 0.01 98 1010.0
20260507073443 57 0 0.0 2.0 0.00 0.04 0.01 98 1009.8
20260507072942 57 0 0.0 1.0 0.00 0.04 0.01 98 1009.9
20260507072442 58 0 0.0 2.0 0.00 0.04 0.01 98 1009.8
20260507071942 58 0 0.0 2.0 0.00 0.04 0.01 98 1009.8
20260507071442 58 0 0.0 2.0 0.00 0.04 0.01 98 1009.9
20260507070943 58 0 0.0 4.0 0.00 0.04 0.01 98 1010.1
20260507070500 58 0 0.0 4.0 0.00 0.04 0.01 98 1010.1
20260507065944 58 0 0.0 4.0 0.00 0.04 0.01 98 1010.2
20260507065442 58 0 0.0 5.0 0.00 0.04 0.01 98 1010.3
20260507064942 58 0 0.0 5.0 0.00 0.04 0.01 98 1010.1
20260507064442 58 0 0.0 2.0 0.00 0.04 0.01 98 1010.0
20260507063947 58 0 0.0 1.0 0.00 0.04 0.01 98 1010.0
20260507063443 58 0 0.0 0.0 0.00 0.04 0.01 98 1010.0
20260507062942 58 0 0.0 3.0 0.00 0.04 0.01 98 1010.1
20260507062442 58 0 0.0 3.0 0.00 0.04 0.01 98 1010.4
20260507061942 58 0 0.0 1.0 0.00 0.04 0.01 98 1010.4
20260507061442 58 0 0.0 3.0 0.00 0.04 0.01 98 1010.4
20260507060950 58 0 0.0 3.0 0.00 0.04 0.01 98 1010.5
20260507060500 58 0 0.0 3.0 0.00 0.04 0.01 98 1010.6
20260507055943 58 0 0.0 3.0 0.00 0.04 0.01 98 1010.7
20260507055444 58 0 0.0 1.0 0.00 0.04 0.01 98 1009.9
20260507054944 58 0 0.0 1.0 0.00 0.04 0.01 98 1010.1
20260507054442 58 0 0.0 1.0 0.00 0.04 0.01 98 1010.4
20260507053942 58 0 0.0 1.0 0.00 0.04 0.01 98 1010.2
20260507053448 58 0 0.0 0.0 0.00 0.04 0.01 98 1010.2
20260507052942 58 0 0.0 1.0 0.00 0.04 0.01 98 1010.2
20260507052442 58 0 0.0 1.0 0.01 0.04 0.01 98 1010.3
20260507051943 58 0 0.0 0.0 0.01 0.04 0.01 98 1010.5
20260507051058 58 0 0.0 0.0 0.01 0.04 0.01 97 1010.7
20260507050550 58 0 0.0 0.0 0.01 0.04 0.01 97 1010.8
20260507050050 58 0 0.0 0.0 0.01 0.04 0.01 97 1010.6
20260507045603 58 0 0.0 0.0 0.01 0.04 0.01 97 1010.7
20260507045052 58 0 0.0 1.0 0.01 0.04 0.01 97 1011.1
20260507044550 58 0 0.0 1.0 0.01 0.04 0.01 97 1011.2
20260507044050 58 0 0.0 1.0 0.01 0.04 0.01 97 1011.2
20260507043550 58 0 0.0 1.0 0.01 0.04 0.01 98 1011.3
20260507043052 58 0 0.0 1.0 0.01 0.04 0.01 98 1011.2
20260507042550 58 0 0.0 1.0 0.00 0.03 0.00 98 1011.2
20260507041615 58 0 0.0 1.0 0.00 0.03 0.00 97 1011.4
20260507041121 58 0 0.0 1.0 0.00 0.03 0.00 97 1011.0
20260507040615 58 0 0.0 1.0 0.00 0.03 0.00 97 1011.2
20260507040115 58 0 0.0 0.0 0.00 0.03 0.00 97 1010.9
20260507035615 58 0 0.0 1.0 0.01 0.03 0.00 97 1011.1
20260507035116 58 0 0.0 2.0 0.01 0.03 0.03 97 1010.8
20260507034616 58 0 0.0 2.0 0.02 0.03 0.03 97 1010.8
20260507034115 58 0 0.0 1.0 0.02 0.03 0.03 97 1010.8
20260507033615 58 0 0.0 1.0 0.02 0.03 0.03 97 1010.4
20260507033115 58 0 0.0 1.0 0.02 0.03 0.03 97 1010.3
20260507032615 58 0 0.0 1.0 0.02 0.03 0.03 97 1010.3
20260507032115 58 0 0.0 2.0 0.02 0.03 0.03 97 1010.3
20260507031615 58 0 0.0 3.0 0.02 0.03 0.03 97 1010.4
20260507031115 59 0 0.0 3.0 0.02 0.03 0.03 97 1010.7
20260507030617 59 0 0.0 3.0 0.02 0.03 0.03 97 1010.5
20260507030115 59 0 0.0 3.0 0.02 0.03 0.03 97 1010.3
20260507025615 59 0 0.0 0.0 0.01 0.02 0.02 97 1011.6
20260507025115 59 0 0.0 0.0 0.01 0.02 0.02 97 1012.1
20260507024615 59 0 0.0 1.0 0.00 0.01 0.01 97 1012.2
20260507024115 59 0 0.0 4.0 0.00 0.01 0.01 97 1012.1
20260507023618 59 0 0.0 4.0 0.00 0.01 0.01 97 1012.0
20260507023115 59 0 0.0 1.0 0.00 0.01 0.01 97 1011.9
20260507022615 59 0 0.0 2.0 0.00 0.01 0.01 97 1011.6
20260507022115 59 0 0.0 2.0 0.00 0.01 0.01 97 1011.5
20260507021615 59 0 0.0 2.0 0.00 0.01 0.01 97 1011.4
20260507021125 59 0 0.0 1.0 0.00 0.01 0.01 97 1011.2
20260507020615 59 0 0.0 1.0 0.00 0.01 0.01 97 1011.1
20260507020115 59 0 0.0 1.0 0.00 0.01 0.01 97 1011.0
20260507015615 59 0 0.0 1.0 0.00 0.01 0.01 97 1011.0
20260507015115 59 0 0.0 1.0 0.00 0.01 0.01 97 1010.9
20260507014615 59 0 0.0 1.0 0.00 0.01 0.01 97 1010.9
20260507014131 60 0 0.0 3.0 0.00 0.01 0.01 97 1011.1
20260507013615 60 0 0.0 3.0 0.00 0.01 0.01 97 1011.1
20260507013127 60 0 0.0 0.0 0.00 0.01 0.01 97 1011.1
20260507012615 60 0 0.0 2.0 0.00 0.01 0.01 97 1011.2
20260507012115 60 0 0.0 2.0 0.00 0.01 0.01 97 1011.0
20260507011615 60 0 0.0 2.0 0.00 0.01 0.01 97 1010.7
20260507011115 60 0 0.0 1.0 0.00 0.01 0.01 96 1010.6
20260507010615 60 0 0.0 1.0 0.00 0.01 0.01 96 1010.9
20260507010319 60 0 0.0 1.0 0.00 0.01 0.01 96 1010.9
20260507010158 60 0 0.0 1.0 0.00 0.01 0.01 96 1010.9
20260507005626 60 0 0.0 0.0 0.00 0.01 0.01 96 1010.6
20260507005116 60 0 0.0 1.0 0.00 0.01 0.01 96 1010.9
20260507004617 60 0 0.0 2.0 0.00 0.01 0.01 96 1011.8
20260507004115 60 0 0.0 2.0 0.00 0.01 0.01 96 1011.8
20260507003619 60 0 0.0 0.0 0.00 0.01 0.01 96 1011.7
20260507003116 60 0 0.0 0.0 0.00 0.01 0.01 96 1011.6
20260507002615 60 0 0.0 1.0 0.00 0.01 0.01 96 1011.4
20260507002115 60 0 0.0 1.0 0.00 0.01 0.01 96 1011.4
20260507001615 60 0 0.0 1.0 0.00 0.01 0.01 96 1011.5
20260507001121 60 0 0.0 0.0 0.00 0.01 0.01 96 1011.6
20260507000615 60 0 0.0 1.0 0.00 0.01 0.01 96 1011.6
20260507000134 60 0 0.0 1.0 0.00 0.01 0.01 95 1011.6
20260506235615 60 0 0.0 1.0 0.00 0.01 0.01 95 1011.5
20260506235115 60 0 0.0 1.0 0.00 0.01 0.01 95 1011.4
20260506234615 60 0 0.0 1.0 0.00 0.01 0.01 95 1011.5
20260506234115 60 0 0.0 1.0 0.00 0.01 0.01 95 1011.3
20260506233628 60 0 0.0 1.0 0.00 0.01 0.01 95 1011.1
20260506233115 60 0 0.0 1.0 0.00 0.01 0.01 95 1011.3
20260506232214 60 0 0.0 3.0 0.00 0.01 0.01 95 1011.4
20260506231732 60 0 0.0 1.0 0.00 0.01 0.01 95 1011.2
20260506231214 60 0 0.0 0.0 0.00 0.01 0.01 95 1011.2
20260506230714 60 0 0.0 0.0 0.00 0.01 0.01 95 1011.0
20260506230218 60 0 0.0 2.0 0.00 0.01 0.01 95 1011.2
20260506225714 61 0 0.0 2.0 0.00 0.01 0.01 94 1011.3
20260506225215 61 0 0.0 1.0 0.00 0.01 0.01 94 1011.3
20260506224723 61 0 0.0 1.0 0.00 0.01 0.01 94 1011.3
20260506224214 61 0 0.0 1.0 0.00 0.01 0.01 94 1011.4
20260506223742 61 0 0.0 2.0 0.00 0.01 0.01 94 1011.4
20260506223216 61 0 0.0 2.0 0.00 0.01 0.01 94 1011.5
20260506222714 61 0 0.0 2.0 0.00 0.01 0.01 94 1011.7
20260506222219 61 0 0.0 2.0 0.00 0.01 0.01 94 1011.8
20260506221714 61 0 0.0 5.0 0.00 0.01 0.01 94 1011.9
20260506221215 61 0 0.0 5.0 0.00 0.01 0.01 93 1012.1
20260506220809 61 0 0.0 1.0 0.00 0.01 0.01 93 1011.9
20260506220214 61 0 0.0 1.0 0.00 0.01 0.01 93 1011.9
20260506215714 61 0 0.0 1.0 0.00 0.01 0.01 93 1012.0
20260506215214 62 0 0.0 1.0 0.00 0.01 0.01 93 1011.9
20260506214510 62 0 0.0 1.0 0.00 0.01 0.01 93 1011.6
20260506214010 62 0 0.0 1.0 0.00 0.01 0.01 94 1011.2
20260506213511 61 0 0.0 1.0 0.00 0.01 0.01 94 1011.3
20260506213010 61 0 0.0 1.0 0.00 0.01 0.01 93 1011.3
20260506212510 61 0 0.0 2.0 0.00 0.01 0.01 94 1011.5
20260506212010 61 0 0.0 2.0 0.00 0.01 0.01 94 1011.2
20260506211510 61 0 0.0 1.0 0.00 0.01 0.01 94 1011.1
20260506211017 61 0 0.0 1.0 0.00 0.01 0.01 94 1010.9
20260506210510 61 0 0.0 4.0 0.00 0.01 0.01 94 1011.0
20260506210010 61 0 0.0 4.0 0.00 0.01 0.01 94 1011.0
20260506205513 61 0 0.0 3.0 0.00 0.01 0.01 94 1011.0
20260506205010 61 0 0.0 3.0 0.00 0.01 0.01 94 1010.9
20260506204515 60 0 0.0 3.0 0.00 0.01 0.01 94 1011.1
20260506204019 60 0 0.0 2.0 0.00 0.01 0.01 93 1011.2
20260506203510 60 0 0.0 3.0 0.00 0.01 0.01 93 1011.4
20260506203010 60 0 0.0 3.0 0.00 0.01 0.01 93 1011.2
20260506202510 60 0 0.0 0.0 0.00 0.01 0.01 94 1011.2
20260506202010 60 0 0.0 1.0 0.00 0.01 0.01 94 1011.3
20260506201510 60 0 0.0 1.0 0.00 0.01 0.01 94 1011.4
20260506201010 60 0 0.0 1.0 0.00 0.01 0.01 94 1011.4
20260506200510 60 0 0.0 1.0 0.00 0.01 0.01 94 1011.4
20260506200010 60 0 0.0 1.0 0.00 0.01 0.01 94 1011.4